Frankfort, KY

12:03 AM EST on February 07, 2016 (GMT -0500)
Capital City

Weather History for KFFT - July, 2014

Change the Weather History Date:

Friday, July 4, 2014

  Actual Average Record
Temperature  
Mean Temperature 66 °F 76 °F  
Max Temperature 80 °F 87 °F 100 °F (1934)
Min Temperature 52 °F 66 °F 49 °F (1968)
Degree Days  
Heating Degree Days 0 0  
Month to date heating degree days 0 0  
Since 1 June heating degree days 3 10  
Since 1 July heating degree days 0 0  
Cooling Degree Days 1 11  
Month to date cooling degree days 29 44  
Year to date cooling degree days 416 379  
Since 1 June cooling degree days 294 280  
Growing Degree Days 16 (Base 50)    
Moisture  
Dew Point 51 °F    
Average Humidity 65    
Maximum Humidity 100    
Minimum Humidity 30    
Precipitation  
Precipitation 0.00 in 0.12 in 2.60 in (1925)
Month to date precipitation 0.66 0.47  
Year to date precipitation 25.36 24.03  
Sea Level Pressure  
Sea Level Pressure 30.23 in    
Wind  
Wind Speed 4 mph (North)    
Max Wind Speed 13 mph    
Max Gust Speed 17 mph    
Visibility 10 miles    
Events      
T = Trace of Precipitation, MM = Missing Value Source: NWS Daily Summary

Daily Weather History Graph

Daily Weather History Graph

Search for Another Location

Airport or City:

Trip Planner

Search our weather history database for the weather conditions in past years. The results will help you decide how hot, cold, wet, or windy it might be!

Date:

Astronomy

Jul. 04, 2014 Rise Set
Actual Time 6:21 AM EDT 9:06 PM EDT
Civil Twilight 5:50 AM EDT 9:37 PM EDT
Nautical Twilight 5:11 AM EDT 10:16 PM EDT
Astronomical Twilight 4:26 AM EDT 11:00 PM EDT
Moon 1:10 PM EDT (7/4) 12:34 AM EDT (7/4)
Length of Visible Light 15h 47m
Length of Day
14h 44m
Waxing Crescent, 42% of the Moon is Illuminated
Jul 4
Waxing Crescent
Jul 5
First Quarter
Jul 12
Full
Jul 18
Last Quarter
Jul 26
New

Hourly Weather History & Observations

Time (EDT) Temp. Dew Point Humidity Pressure Visibility Wind Dir Wind Speed Gust Speed Precip Events Conditions
12:53 AM 61.0 °F 57.0 °F 87% 30.17 in 10.0 mi NW 3.5 mph - N/A   Clear
1:53 AM 57.9 °F 55.9 °F 93% 30.17 in 10.0 mi NNW 3.5 mph - N/A   Clear
2:53 AM 55.9 °F 54.0 °F 93% 30.17 in 10.0 mi Calm Calm - N/A   Clear
3:53 AM 55.0 °F 54.0 °F 96% 30.18 in 10.0 mi NNW 3.5 mph - N/A   Clear
4:53 AM 54.0 °F 53.1 °F 97% 30.18 in 10.0 mi Calm Calm - N/A   Clear
5:53 AM 53.1 °F 52.0 °F 96% 30.20 in 10.0 mi NNW 3.5 mph - N/A   Clear
6:53 AM 53.1 °F 52.0 °F 96% 30.23 in 10.0 mi Calm Calm - N/A   Clear
7:53 AM 57.9 °F 52.0 °F 81% 30.24 in 10.0 mi NNW 4.6 mph - N/A   Clear
8:53 AM 63.0 °F 50.0 °F 63% 30.26 in 10.0 mi NNE 5.8 mph - N/A   Clear
9:53 AM 66.0 °F 51.1 °F 59% 30.27 in 10.0 mi NNW 4.6 mph - N/A   Clear
10:53 AM 69.1 °F 48.9 °F 49% 30.27 in 10.0 mi North 6.9 mph - N/A   Clear
11:53 AM 73.0 °F 46.0 °F 38% 30.28 in 10.0 mi North 8.1 mph - N/A   Clear
12:53 PM 73.9 °F 46.9 °F 38% 30.27 in 10.0 mi Variable 4.6 mph - N/A   Clear
1:53 PM 75.9 °F 46.0 °F 35% 30.26 in 10.0 mi ENE 8.1 mph - N/A   Clear
2:53 PM 77.0 °F 48.0 °F 36% 30.25 in 10.0 mi NNW 8.1 mph - N/A   Clear
3:53 PM 78.1 °F 48.9 °F 36% 30.24 in 10.0 mi North - - N/A   Clear
4:53 PM 79.0 °F 48.0 °F 34% 30.23 in 10.0 mi Variable 4.6 mph - N/A   Partly Cloudy
5:53 PM 80.1 °F 46.9 °F 31% 30.23 in 10.0 mi North 8.1 mph - N/A   Clear
6:53 PM 79.0 °F 48.0 °F 34% 30.22 in 10.0 mi North 9.2 mph - N/A   Clear
7:53 PM 77.0 °F 48.9 °F 37% 30.23 in 10.0 mi NNW 5.8 mph - N/A   Clear
8:53 PM 72.0 °F 51.1 °F 48% 30.23 in 10.0 mi NNW 4.6 mph - N/A   Clear
9:53 PM 68.0 °F 52.0 °F 56% 30.25 in 10.0 mi North 3.5 mph - N/A   Clear
10:53 PM 64.0 °F 53.1 °F 67% 30.27 in 10.0 mi Calm Calm - N/A   Clear
11:53 PM 62.1 °F 53.1 °F 72% 30.27 in 10.0 mi Calm Calm - N/A   Clear